[TLELIST] Archives

 

[list_settings.list_name] Current TLEs

April 18th 2022 PDT

HST 1 20580U 90037B 22108.29128536 .00002522 00000-0 13923-3 0 9995 2 20580 28.4697 207.3697 0002953 105.3665 288.4225 15.10298791557373 ISS (ZARYA) 1 25544U 98067A 22108.42590714 .00006682 00000-0 12442-3 0 9993 2 25544 51.6427 272.5697 0004875 36.6659 50.9354 15.50121356335910 CXO 1 25867U 99040B 22107.22679692 .00001018 00000-0 00000-0 0 9995 2 25867 47.0551 239.3883 8747393 231.8584 0.1543 0.37811776 11566 ____________________________________________________________________ These 2-Line ...Continue Reading

[list_settings.list_name] Current TLEs

April 17th 2022 PDT

HST 1 20580U 90037B 22106.72656779 .00002639 00000-0 14620-3 0 9990 2 20580 28.4698 217.7330 0002979 90.5061 58.9410 15.10291548556879 ISS (ZARYA) 1 25544U 98067A 22106.94497041 .00009116 00000-0 16690-3 0 9991 2 25544 51.6441 279.9065 0004751 32.2489 65.6769 15.50102636335689 CXO 1 25867U 99040B 22107.22679692 .00001018 00000-0 00000-0 0 9995 2 25867 47.0551 239.3883 8747393 231.8584 0.1543 0.37811776 11566 ____________________________________________________________________ These 2-Line ...Continue Reading

[list_settings.list_name] Current TLEs

April 16th 2022 PDT

HST 1 20580U 90037B 22105.73462534 .00002562 00000-0 14167-3 0 9995 2 20580 28.4696 224.3026 0002996 81.0143 64.5008 15.10285949556726 ISS (ZARYA) 1 25544U 98067A 22106.35949068 .00008299 00000-0 15276-3 0 9997 2 25544 51.6440 282.8081 0004794 29.9061 38.6669 15.50087764335598 CXO 1 25867U 99040B 22107.22679692 .00001018 00000-0 00000-0 0 9995 2 25867 47.0551 239.3883 8747393 231.8584 0.1543 0.37811776 11566 ____________________________________________________________________ These 2-Line ...Continue Reading

[list_settings.list_name] Current TLEs

April 15th 2022 PDT

HST 1 20580U 90037B 22104.65479671 .00002639 00000-0 14630-3 0 9995 2 20580 28.4696 231.4544 0002979 70.8206 311.9973 15.10280839556562 ISS (ZARYA) 1 25544U 98067A 22105.21669113 .00006207 00000-0 11640-3 0 9999 2 25544 51.6446 288.4729 0005027 26.2318 140.9722 15.50061826335419 CXO 1 25867U 99040B 22107.22679692 .00001018 00000-0 00000-0 0 9995 2 25867 47.0551 239.3883 8747393 231.8584 0.1543 0.37811776 11566 ____________________________________________________________________ These 2-Line ...Continue Reading

[list_settings.list_name] Current TLEs

April 14th 2022 PDT

HST 1 20580U 90037B 22104.08615693 .00002536 00000-0 14014-3 0 9990 2 20580 28.4695 235.2204 0002976 65.2888 99.6980 15.10277695556741 ISS (ZARYA) 1 25544U 98067A 22104.28142361 .00007976 00000-0 14731-3 0 9994 2 25544 51.6433 293.1068 0004827 21.1780 323.6005 15.50051963335266 CXO 1 25867U 99040B 22104.58164641 .00001109 00000-0 00000-0 0 9995 2 25867 47.1588 239.6146 8747473 231.7441 0.0588 0.37814264 11554 ____________________________________________________________________ These 2-Line ...Continue Reading

[list_settings.list_name] Current TLEs

April 13th 2022 PDT

HST 1 20580U 90037B 22102.82325984 .00002806 00000-0 15623-3 0 9998 2 20580 28.4694 243.5850 0002964 52.5597 72.4515 15.10272570556551 ISS (ZARYA) 1 25544U 98067A 22103.01231331 .00040719 00000-0 71650-3 0 9995 2 25544 51.6431 299.3956 0005196 14.9914 83.2863 15.50040100335078 CXO 1 25867U 99040B 22104.58164641 .00001109 00000-0 00000-0 0 9995 2 25867 47.1588 239.6146 8747473 231.7441 0.0588 0.37814264 11554 ____________________________________________________________________ These 2-Line ...Continue Reading

[list_settings.list_name] Current TLEs

April 12th 2022 PDT

HST 1 20580U 90037B 22101.83103066 .00002573 00000-0 14239-3 0 9996 2 20580 28.4694 250.1569 0002910 42.7623 76.8252 15.10266260556133 ISS (ZARYA) 1 25544U 98067A 22102.31652132 .00009189 00000-0 16866-3 0 9997 2 25544 51.6440 302.8405 0004443 15.4871 157.6460 15.50020871334968 CXO 1 25867U 99040B 22104.58164641 .00001109 00000-0 00000-0 0 9995 2 25867 47.1588 239.6146 8747473 231.7441 0.0588 0.37814264 11554 ____________________________________________________________________ These 2-Line ...Continue Reading

[list_settings.list_name] Current TLEs

April 11th 2022 PDT

HST 1 20580U 90037B 22100.83915378 .00002828 00000-0 15759-3 0 9993 2 20580 28.4694 256.7265 0002874 32.7247 83.3766 15.10261104555985 ISS (ZARYA) 1 25544U 98067A 22101.34838098 .00010998 00000-0 20034-3 0 9998 2 25544 51.6440 307.6369 0004493 11.0035 156.2993 15.50005149334810 CXO 1 25867U 99040B 22101.94074325 .00001101 00000-0 00000+0 0 9992 2 25867 47.2611 239.8396 8745653 231.6112 0.6119 0.37810188 22709 ____________________________________________________________________ These 2-Line ...Continue Reading

[list_settings.list_name] Current TLEs

April 10th 2022 PDT

HST 1 20580U 90037B 22099.91723649 .00003000 00000-0 16787-3 0 9992 2 20580 28.4695 262.8324 0002828 23.2070 110.5490 15.10256073555849 ISS (ZARYA) 1 25544U 98067A 22100.25150948 .00010405 00000-0 19017-3 0 9990 2 25544 51.6448 313.0706 0004481 7.0055 155.7354 15.49977860334640 CXO 1 25867U 99040B 22101.94074325 .00001101 00000-0 00000+0 0 9992 2 25867 47.2611 239.8396 8745653 231.6112 0.6119 0.37810188 22709 ____________________________________________________________________ These 2-Line ...Continue Reading

[list_settings.list_name] Current TLEs

April 9th 2022 PDT

HST 1 20580U 90037B 22098.85537181 .00002986 00000-0 16707-3 0 9992 2 20580 28.4697 269.8657 0002776 12.2824 96.7555 15.10249667555684 ISS (ZARYA) 1 25544U 98067A 22099.35028832 .00009155 00000-0 16845-3 0 9990 2 25544 51.6443 317.5339 0004805 2.7429 167.9401 15.49951922334507 CXO 1 25867U 99040B 22099.29195939 .00001001 00000-0 00000-0 0 9991 2 25867 47.3328 240.0137 8742490 231.5110 0.0942 0.37805595 11549 ____________________________________________________________________ These 2-Line ...Continue Reading
  • This mailing list is a public mailing list - anyone may join or leave, at any time.
  • This mailing list is announce-only.

International Space Station (ISS) / Hubble Space Telescope (HST) / Chandra X-Ray Observatory Orbital Data via EMAIL

Privacy Policy:

Private list